AC2EV Weather Reports


Display with metric or nautical units.
time (UTC)temp
F
wind
direction
speed
MPH
gust
MPH
rain 1hr
in
rain 24hr
in
rain mn
in
humidity
%
barometer
mb
20260902043730 70 26 0.0 0.0 0.00 0.04 0.00 90 1014.9
20260902043229 70 25 0.0 0.0 0.00 0.04 0.00 90 1014.8
20260902042729 70 25 0.0 0.0 0.00 0.04 0.00 90 1014.7
20260902042229 70 24 0.0 0.0 0.00 0.04 0.00 90 1014.7
20260902041729 70 23 0.0 0.0 0.00 0.04 0.00 90 1014.7
20260902041226 70 22 0.0 0.0 0.00 0.04 0.00 90 1014.8
20260902040725 70 21 0.0 0.0 0.00 0.04 0.00 90 1014.8
20260902040224 70 20 0.0 0.0 0.00 0.04 0.00 90 1014.8
20260902035722 70 19 0.0 0.0 0.00 0.04 0.04 90 1014.7
20260902035220 70 19 0.0 0.0 0.00 0.04 0.04 89 1014.8
20260902034718 70 19 0.0 0.0 0.00 0.04 0.04 89 1014.9
20260902034217 70 19 0.0 0.0 0.00 0.04 0.04 89 1014.9
20260902033715 70 19 0.0 0.0 0.00 0.04 0.04 89 1014.9
20260902033213 70 19 0.0 0.0 0.00 0.04 0.04 90 1014.8
20260902032712 70 20 0.0 0.0 0.00 0.04 0.04 90 1014.7
20260902032213 70 21 0.0 0.0 0.00 0.04 0.04 90 1014.7
20260902031710 70 22 0.0 0.0 0.00 0.04 0.04 90 1014.7
20260902031210 70 24 0.0 0.0 0.00 0.04 0.04 90 1014.7
20260902030710 70 24 0.0 0.0 0.00 0.04 0.04 90 1014.7
20260902030208 70 26 0.0 0.0 0.00 0.04 0.04 90 1014.8
20260902025708 70 28 0.0 0.0 0.00 0.04 0.04 90 1014.7
20260902025206 70 31 0.0 0.0 0.00 0.04 0.04 90 1014.7
20260902024706 70 30 0.0 0.0 0.00 0.04 0.04 90 1014.7
20260902024205 70 31 0.0 0.0 0.00 0.04 0.04 90 1014.7
20260902023706 70 30 0.0 0.0 0.00 0.04 0.04 90 1014.7
20260902023204 70 32 0.0 0.0 0.00 0.04 0.04 90 1014.9
20260902022704 70 31 0.0 0.0 0.00 0.04 0.04 90 1014.6
20260902022204 70 31 0.0 0.0 0.00 0.04 0.04 90 1014.7
20260902021704 70 31 0.0 0.0 0.00 0.04 0.04 90 1014.7
20260902021205 70 29 0.0 0.0 0.00 0.04 0.04 90 1014.7
20260902020704 70 30 0.0 1.0 0.00 0.04 0.04 90 1014.8
20260902020204 70 28 0.0 1.0 0.00 0.04 0.04 90 1014.9
20260902015704 71 28 0.0 0.0 0.00 0.04 0.04 90 1014.9
20260902015205 71 26 0.0 0.0 0.00 0.04 0.04 90 1015.0
20260902014704 71 26 0.0 0.0 0.00 0.04 0.04 90 1015.0
20260902014204 71 27 0.0 0.0 0.00 0.04 0.04 90 1015.0
20260902013703 71 27 0.0 0.0 0.00 0.04 0.04 90 1015.0
20260902013204 71 27 0.0 0.0 0.00 0.04 0.04 90 1014.9
20260902012703 71 30 0.0 0.0 0.00 0.04 0.04 90 1015.0
20260902012204 71 29 0.0 0.0 0.00 0.04 0.04 90 1014.9
20260902011702 71 30 0.0 0.0 0.00 0.04 0.04 90 1014.9
20260902011204 71 30 0.0 0.0 0.00 0.04 0.04 90 1014.9
20260902010702 71 30 0.0 0.0 0.00 0.04 0.04 90 1014.9
20260902010204 71 29 0.0 0.0 0.00 0.04 0.04 90 1014.8
20260902005703 71 30 0.0 0.0 0.00 0.04 0.04 90 1014.7
20260902005204 71 30 0.0 0.0 0.00 0.04 0.04 90 1014.6
20260902004702 71 30 0.0 0.0 0.00 0.04 0.04 90 1014.5
20260902004206 71 30 0.0 0.0 0.00 0.04 0.04 90 1014.4
20260902003702 71 30 0.0 0.0 0.00 0.04 0.04 90 1014.3
20260902003205 71 30 0.0 0.0 0.00 0.04 0.04 90 1014.3
20260902002703 71 30 0.0 0.0 0.00 0.04 0.04 90 1014.1
20260902002204 71 30 0.0 0.0 0.00 0.04 0.04 90 1014.1
20260902001702 71 30 0.0 0.0 0.00 0.04 0.04 90 1013.9
20260902001204 71 29 0.0 0.0 0.00 0.04 0.04 90 1013.8
20260902000702 71 29 0.0 0.0 0.00 0.04 0.04 90 1013.7
20260902000204 71 28 0.0 0.0 0.00 0.04 0.04 89 1013.8
20260901235703 71 30 0.0 0.0 0.00 0.05 0.04 89 1013.7
20260901235204 72 30 0.0 0.0 0.00 0.05 0.04 89 1013.8
20260901234703 72 31 0.0 0.0 0.00 0.08 0.04 89 1013.8
20260901234204 72 32 0.0 0.0 0.00 0.08 0.04 89 1013.8
20260901233703 72 30 0.0 0.0 0.00 0.08 0.04 89 1013.8
20260901233204 72 32 0.0 0.0 0.00 0.08 0.04 89 1013.8
20260901232703 72 32 0.0 0.0 0.00 0.08 0.04 88 1013.9
20260901232204 72 30 0.0 0.0 0.00 0.08 0.04 88 1013.9
20260901231703 72 29 0.0 0.0 0.00 0.08 0.04 88 1014.0
20260901231204 72 29 0.0 0.0 0.00 0.08 0.04 88 1014.0
20260901230703 73 28 0.0 0.0 0.00 0.08 0.04 88 1014.1
20260901230205 73 28 0.0 0.0 0.00 0.08 0.04 88 1014.1
20260901225702 73 26 0.0 0.0 0.00 0.08 0.04 88 1014.0
20260901225204 73 26 0.0 0.0 0.00 0.08 0.04 88 1014.0
20260901224656 73 26 0.0 0.0 0.00 0.08 0.04 87 1014.0
20260901224150 73 26 0.0 0.0 0.00 0.08 0.04 87 1014.0
20260901223644 73 30 0.0 0.0 0.00 0.08 0.04 87 1014.0
20260901223138 73 32 0.0 0.0 0.00 0.08 0.04 87 1014.1
20260901222636 73 198 0.0 0.0 0.00 0.08 0.04 87 1014.1
20260901222137 73 199 0.0 0.0 0.00 0.08 0.04 87 1014.1
20260901221636 74 199 0.0 0.0 0.00 0.08 0.04 86 1014.1
20260901221136 74 199 0.0 0.0 0.00 0.08 0.04 86 1014.0
20260901220635 74 199 0.0 0.0 0.00 0.08 0.04 86 1013.9
20260901220133 74 199 0.0 0.0 0.00 0.08 0.04 86 1013.9
20260901215632 74 199 0.0 0.0 0.00 0.08 0.04 85 1014.0
20260901215131 74 199 0.0 0.0 0.00 0.08 0.04 85 1013.9
20260901214631 74 199 0.0 0.0 0.00 0.08 0.04 85 1013.9
20260901214130 74 199 0.0 0.0 0.00 0.08 0.04 85 1013.9
20260901213633 75 199 0.0 0.0 0.00 0.08 0.04 85 1013.9
20260901213130 75 199 0.0 0.0 0.00 0.08 0.04 84 1013.9
20260901212631 75 199 0.0 0.0 0.00 0.08 0.04 84 1013.9
20260901212130 75 199 0.0 0.0 0.00 0.08 0.04 83 1013.9
20260901211631 76 199 0.0 0.0 0.00 0.08 0.04 85 1013.8
20260901211131 75 199 0.0 0.0 0.00 0.08 0.04 85 1013.8
20260901210631 75 199 0.0 0.0 0.00 0.08 0.04 85 1013.9
20260901210134 75 199 0.0 0.0 0.00 0.08 0.04 84 1013.9
20260901205624 75 199 0.0 0.0 0.00 0.08 0.04 84 1013.7
20260901205118 75 199 0.0 0.0 0.00 0.09 0.04 85 1013.7
20260901204612 75 199 0.0 0.0 0.00 0.09 0.04 85 1013.7
20260901204112 75 199 0.0 0.0 0.00 0.09 0.04 85 1013.8
20260901203613 75 199 0.0 0.0 0.00 0.09 0.04 85 1013.8
20260901203112 74 199 0.0 0.0 0.00 0.09 0.04 86 1013.7
20260901202613 74 198 0.0 0.0 0.00 0.09 0.04 85 1013.8
20260901202113 74 198 0.0 0.0 0.00 0.09 0.04 85 1014.0
20260901201611 75 199 0.0 0.0 0.00 0.09 0.04 85 1014.1
20260901201110 75 199 0.0 0.0 0.00 0.09 0.04 85 1014.0
20260901200614 75 199 0.0 0.0 0.00 0.10 0.04 84 1014.0
20260901200108 75 199 0.0 0.0 0.00 0.10 0.04 84 1014.0
20260901195609 76 199 0.0 0.0 0.00 0.11 0.04 84 1013.9
20260901195109 76 199 0.0 0.0 0.00 0.13 0.04 83 1014.0
20260901194609 76 199 0.0 0.0 0.00 0.14 0.04 83 1014.0
20260901194109 76 199 0.0 0.0 0.00 0.15 0.04 82 1014.0
20260901193609 77 199 0.0 0.0 0.00 0.15 0.04 82 1013.9
20260901193107 77 199 0.0 0.0 0.00 0.16 0.04 83 1014.0
20260901192606 77 199 0.0 0.0 0.00 0.17 0.04 82 1013.9
20260901192104 76 199 0.0 0.0 0.00 0.18 0.04 83 1013.9
20260901191605 76 199 0.0 0.0 0.00 0.19 0.04 83 1014.0
20260901191104 76 199 0.0 0.0 0.00 0.21 0.04 82 1013.9
20260901190603 76 199 0.0 0.0 0.00 0.21 0.04 85 1013.9
20260901190105 75 199 0.0 0.0 0.00 0.21 0.04 84 1013.9
20260901185603 75 199 0.0 0.0 0.00 0.22 0.04 85 1013.8
20260901185103 75 199 0.0 1.0 0.00 0.23 0.04 84 1013.9
20260901184602 75 199 0.0 1.0 0.00 0.23 0.04 84 1014.0
20260901184102 75 200 0.0 0.0 0.00 0.24 0.04 85 1014.1
20260901183602 75 200 0.0 0.0 0.00 0.24 0.04 85 1014.1
20260901183102 75 200 0.0 1.0 0.00 0.24 0.04 85 1014.1
20260901182602 75 200 0.0 1.0 0.00 0.24 0.04 85 1014.1
20260901182103 75 200 0.0 0.0 0.00 0.24 0.04 85 1014.0
20260901181602 75 205 0.0 0.0 0.00 0.25 0.04 85 1013.9
20260901181102 75 206 0.0 0.0 0.00 0.27 0.04 85 1014.0
20260901180602 75 206 0.0 0.0 0.00 0.31 0.04 86 1013.9
20260901175603 75 211 0.0 0.0 0.00 0.43 0.04 85 1013.7
20260901175102 76 211 0.0 0.0 0.00 0.47 0.04 85 1013.7
20260901174602 76 213 0.0 1.0 0.00 0.49 0.04 84 1013.7
20260901174102 76 213 0.0 1.0 0.00 0.50 0.04 85 1013.6
20260901173603 76 224 0.0 0.0 0.00 0.52 0.04 83 1013.6
20260901173102 77 225 0.0 0.0 0.00 0.55 0.04 84 1013.5
20260901172603 77 229 0.0 0.0 0.00 0.60 0.04 84 1013.6
20260901172103 77 229 0.0 0.0 0.00 0.63 0.04 82 1013.5
20260901171602 77 229 0.0 0.0 0.00 0.63 0.04 82 1013.4
20260901171102 77 229 0.0 0.0 0.00 0.64 0.04 83 1013.3
20260901170602 77 229 0.0 0.0 0.00 0.64 0.04 83 1013.3
20260901165602 77 233 0.0 0.0 0.00 0.64 0.04 84 1013.2
20260901165102 77 234 0.0 0.0 0.00 0.64 0.04 83 1013.2
20260901164603 77 233 0.0 0.0 0.00 0.65 0.04 82 1013.1
20260901164103 77 233 0.0 0.0 0.00 0.65 0.04 84 1013.2
20260901163602 77 233 0.0 1.0 0.00 0.65 0.04 83 1013.1
20260901163102 78 233 0.0 1.0 0.00 0.65 0.04 82 1013.2
20260901162602 78 232 0.0 0.0 0.00 0.65 0.04 82 1013.1
20260901162103 79 232 0.0 0.0 0.00 0.65 0.04 80 1013.1
20260901161602 80 232 0.0 2.0 0.00 0.65 0.04 78 1012.9
20260901161103 80 232 0.0 2.0 0.00 0.65 0.04 79 1013.0
20260901160602 80 232 0.0 0.0 0.00 0.65 0.04 80 1012.9
20260901155603 80 232 0.0 0.0 0.00 0.65 0.04 79 1012.8
20260901155103 79 232 0.0 2.0 0.00 0.65 0.04 81 1012.8
20260901154602 79 232 0.0 2.0 0.00 0.65 0.04 80 1012.6
20260901154103 79 232 0.0 0.0 0.00 0.65 0.04 81 1012.6
20260901153603 78 232 0.0 1.0 0.00 0.66 0.04 82 1012.7
20260901153102 78 232 0.0 1.0 0.00 0.66 0.04 82 1012.8
20260901152603 78 232 0.0 0.0 0.00 0.66 0.04 82 1012.7
20260901152055 78 232 0.0 0.0 0.00 0.66 0.04 83 1012.7
20260901151550 78 232 0.0 0.0 0.00 0.67 0.04 82 1012.7
20260901151043 78 232 0.0 0.0 0.00 0.67 0.04 81 1012.7
20260901150544 78 232 0.0 0.0 0.00 0.67 0.04 82 1012.7
20260901150042 78 232 0.0 0.0 0.00 0.67 0.04 83 1012.8
20260901145540 78 232 0.0 5.0 0.00 0.67 0.04 83 1012.8
20260901145038 78 232 0.0 5.0 0.00 0.68 0.04 83 1012.8
20260901144538 77 219 0.0 2.0 0.00 0.69 0.04 83 1012.7
20260901144037 77 219 0.0 2.0 0.00 0.71 0.04 83 1012.7
20260901143538 77 219 0.0 2.0 0.00 0.71 0.04 83 1012.7
20260901143038 77 219 0.0 2.0 0.00 0.72 0.04 83 1012.7
20260901142537 77 211 0.0 1.0 0.00 0.72 0.04 84 1012.6
20260901142036 77 207 0.0 1.0 0.00 0.72 0.04 85 1012.7
20260901141536 77 207 0.0 1.0 0.00 0.73 0.04 87 1012.7
20260901141036 76 205 0.0 0.0 0.00 0.73 0.04 87 1012.6
20260901140533 76 205 0.0 0.0 0.00 0.75 0.04 87 1012.6
20260901140034 76 205 0.0 0.0 0.00 0.76 0.04 89 1012.6
20260901135533 75 203 0.0 0.0 0.00 0.77 0.04 89 1012.6
20260901135031 75 203 0.0 0.0 0.00 0.77 0.04 90 1012.6
20260901134531 74 203 0.0 0.0 0.00 0.78 0.04 90 1012.6
20260901134031 74 203 0.0 0.0 0.00 0.78 0.04 90 1012.6
20260901133529 74 203 0.0 0.0 0.00 0.79 0.04 89 1012.6
20260901133023 73 203 0.0 0.0 0.00 0.80 0.04 88 1012.6
20260901132523 73 203 0.0 0.0 0.00 0.80 0.04 87 1012.8
20260901132021 72 202 0.0 0.0 0.00 0.81 0.04 87 1012.8
20260901131520 72 202 0.0 0.0 0.00 0.82 0.04 87 1012.8
20260901131017 72 202 0.0 0.0 0.00 0.84 0.04 86 1012.7
20260901130516 72 202 0.0 0.0 0.00 0.86 0.04 86 1012.7
20260901130017 72 202 0.0 0.0 0.00 0.89 0.04 87 1012.7
20260901125513 72 202 0.0 0.0 0.00 0.91 0.04 87 1012.6
20260901125013 71 202 0.0 0.0 0.00 0.96 0.04 87 1012.7
20260901124512 71 202 0.0 0.0 0.00 0.99 0.04 87 1012.7
20260901124010 71 202 0.0 0.0 0.00 1.02 0.04 87 1012.7
20260901123508 71 202 0.0 0.0 0.01 1.05 0.04 87 1012.8
20260901123007 71 202 0.0 0.0 0.01 1.06 0.04 87 1012.8
20260901122505 71 202 0.0 0.0 0.01 1.07 0.04 87 1012.9
20260901122006 70 197 0.0 0.0 0.01 1.07 0.04 87 1012.9
20260901121503 70 198 0.0 0.0 0.01 1.07 0.04 87 1012.8
20260901121007 70 199 0.0 0.0 0.01 1.07 0.04 87 1012.8
20260901120504 70 195 0.0 0.0 0.01 1.07 0.04 87 1012.8
20260901120005 70 197 0.0 0.0 0.01 1.07 0.04 87 1012.7
20260901115503 70 198 0.0 0.0 0.01 1.08 0.04 87 1012.7
20260901115002 70 199 0.0 0.0 0.01 1.08 0.04 87 1012.7
20260901114502 70 200 0.0 0.0 0.01 1.09 0.04 87 1012.6
20260901114003 70 200 0.0 0.0 0.01 1.09 0.04 87 1012.5
20260901113503 69 200 0.0 0.0 0.00 1.08 0.03 88 1012.6
20260901113002 69 200 0.0 0.0 0.00 1.08 0.03 88 1012.5
20260901112503 69 200 0.0 0.0 0.00 1.08 0.03 88 1012.6
20260901112003 69 200 0.0 0.0 0.00 1.08 0.03 87 1012.7
20260901111501 69 200 0.0 0.0 0.00 1.08 0.03 87 1012.6
20260901111017 69 200 0.0 0.0 0.00 1.08 0.03 88 1012.6
20260901110458 69 200 0.0 0.0 0.00 1.08 0.03 88 1012.5
20260901110018 69 200 0.0 0.0 0.00 1.08 0.03 88 1012.5
20260901105455 69 200 0.0 0.0 0.00 1.08 0.03 88 1012.5
20260901104955 69 200 0.0 0.0 0.00 1.08 0.03 88 1012.5
20260901104456 69 200 0.0 0.0 0.00 1.08 0.03 88 1012.4
20260901103955 69 200 0.0 0.0 0.00 1.08 0.03 88 1012.4
20260901103455 69 200 0.0 0.0 0.00 1.08 0.03 88 1012.4
20260901102953 69 200 0.0 0.0 0.00 1.08 0.03 88 1012.3
20260901102447 69 200 0.0 0.0 0.00 1.08 0.03 88 1012.0
20260901101947 69 200 0.0 0.0 0.00 1.08 0.03 88 1012.0
20260901101447 69 200 0.0 0.0 0.00 1.08 0.03 88 1012.0
20260901100946 69 200 0.0 0.0 0.00 1.08 0.03 88 1012.1
20260901100445 69 200 0.0 0.0 0.00 1.08 0.03 88 1012.3
20260901100018 69 200 0.0 0.0 0.00 1.08 0.03 88 1012.1
20260901095445 69 200 0.0 0.0 0.00 1.08 0.03 88 1012.0
20260901094943 69 200 0.0 0.0 0.00 1.08 0.03 88 1012.1
20260901094443 69 200 0.0 0.0 0.00 1.08 0.03 88 1012.0
20260901094016 69 200 0.0 0.0 0.00 1.08 0.03 88 1012.1
20260901093437 69 200 0.0 0.0 0.00 1.08 0.03 88 1012.3
20260901092937 69 200 0.0 0.0 0.00 1.08 0.03 88 1012.1
20260901092437 69 200 0.0 0.0 0.00 1.08 0.03 88 1012.1
20260901091937 69 200 0.0 0.0 0.00 1.08 0.03 88 1012.3
20260901091437 69 200 0.0 0.0 0.00 1.08 0.03 88 1012.4
20260901091018 69 200 0.0 0.0 0.00 1.08 0.03 88 1012.3
20260901090437 69 200 0.0 0.0 0.00 1.08 0.03 88 1012.3
20260901085937 69 200 0.0 0.0 0.00 1.08 0.03 88 1012.1
20260901085437 69 200 0.0 0.0 0.00 1.08 0.03 88 1012.0
20260901085015 69 200 0.0 0.0 0.00 1.08 0.03 87 1012.1
20260901084433 69 200 0.0 0.0 0.00 1.08 0.03 87 1012.4
20260901083933 69 200 0.0 0.0 0.00 1.08 0.03 87 1012.0
20260901083431 69 200 0.0 0.0 0.00 1.08 0.03 87 1012.0
20260901082931 69 200 0.0 0.0 0.00 1.08 0.03 87 1011.9
20260901082431 69 200 0.0 0.0 0.00 1.08 0.03 87 1012.0
20260901081930 69 200 0.0 0.0 0.00 1.08 0.03 87 1011.9
20260901081431 69 200 0.0 0.0 0.00 1.08 0.03 87 1011.9
20260901080930 69 200 0.0 0.0 0.00 1.08 0.03 87 1012.0
20260901080430 69 200 0.0 0.0 0.00 1.08 0.03 87 1012.1
20260901075930 69 200 0.0 0.0 0.00 1.08 0.03 87 1012.1
20260901075430 69 200 0.0 0.0 0.00 1.08 0.03 87 1012.1
20260901075016 69 201 0.0 1.0 0.00 1.08 0.03 87 1012.3
20260901074430 69 202 0.0 1.0 0.00 1.08 0.03 87 1012.4
20260901073925 69 203 0.0 0.0 0.00 1.08 0.03 87 1012.5
20260901073418 69 203 0.0 0.0 0.00 1.08 0.03 87 1012.7
20260901072913 69 203 0.0 0.0 0.00 1.08 0.03 87 1012.7
20260901072413 69 203 0.0 1.0 0.00 1.08 0.03 87 1012.8
20260901071911 69 203 0.0 1.0 0.00 1.08 0.03 87 1012.7
20260901071411 69 203 0.0 0.0 0.00 1.08 0.03 87 1012.7
20260901070911 69 207 0.0 0.0 0.00 1.08 0.03 87 1012.7
20260901070413 69 207 0.0 0.0 0.00 1.08 0.03 87 1012.8
20260901065911 69 207 0.0 0.0 0.00 1.08 0.03 87 1013.0
20260901065411 69 207 0.0 0.0 0.00 1.08 0.03 87 1013.1
20260901064913 69 207 0.0 0.0 0.00 1.08 0.03 87 1013.3
20260901064409 69 207 0.0 0.0 0.00 1.08 0.03 87 1013.3
20260901063906 69 207 0.0 0.0 0.00 1.08 0.03 87 1013.3
20260901063408 69 207 0.0 0.0 0.00 1.08 0.03 87 1013.5
20260901062907 69 207 0.0 0.0 0.00 1.08 0.03 87 1013.6
20260901062404 69 207 0.0 0.0 0.00 1.08 0.03 87 1013.7
20260901061902 69 207 0.0 0.0 0.00 1.08 0.03 87 1013.8
20260901061404 69 207 0.0 0.0 0.00 1.08 0.03 87 1013.8
20260901060955 69 207 0.0 0.0 0.00 1.08 0.03 87 1013.9
20260901060404 69 207 0.0 0.0 0.00 1.08 0.03 87 1013.9
20260901055902 69 207 0.0 0.0 0.01 1.08 0.03 87 1013.9
20260901055402 69 207 0.0 0.0 0.02 1.08 0.03 87 1013.9
20260901054902 69 207 0.0 0.0 0.02 1.08 0.03 87 1013.9
20260901054403 69 207 0.0 0.0 0.03 1.08 0.03 87 1013.9
20260901053903 69 207 0.0 0.0 0.03 1.08 0.03 87 1013.9
20260901053402 69 207 0.0 0.0 0.03 1.08 0.03 87 1013.9
20260901052903 69 207 0.0 0.0 0.03 1.08 0.03 87 1014.1
20260901052402 69 207 0.0 0.0 0.03 1.08 0.03 87 1014.1
20260901051902 69 207 0.0 0.0 0.03 1.08 0.03 87 1014.3
20260901051402 69 207 0.0 0.0 0.03 1.08 0.03 87 1014.3
20260901050902 68 207 0.0 0.0 0.03 1.08 0.03 87 1014.3
20260901050402 68 207 0.0 0.0 0.03 1.08 0.03 87 1014.5
20260901045902 68 207 0.0 0.0 0.02 1.07 0.02 88 1014.5
20260901045403 68 207 0.0 0.0 0.01 1.06 0.01 88 1014.5
20260901044902 68 207 0.0 0.0 0.01 1.06 0.00 88 1014.5
20260901044419 68 207 0.0 0.0 0.00 1.05 0.00 88 1014.5
20260901043946 68 207 0.0 0.0 0.00 1.05 0.00 88 1014.5